Flag for Canada Weather past 2 weeks in Oakville, Ontario, Canada

Now
66 °F

Mild.


Feels Like: 66 °F
Forecast: 58 / 72 °F
Wind: 12 mph from Northwest

Location: Burlington Piers

Current Time: Jul 1, 2015 at 9:51:25 AM

Latest Report: Jul 1, 2015 at 9:00 AM


Visibility: N/A

Pressure: 29.74 "Hg

Humidity: 72%

Dew point: 57 °F

Location of OakvilleLocation

Historic Weather in Oakville — Graph

°F

Oakville temperature yesterday

Maximum temperature yesterday: 66 °F (at 12:00 AM)
Minimum temperature yesterday: 58 °F (at 9:00 PM)
Average temperature yesterday: 60 °F

Past Weeks' High & Low Weather Summary

 TemperatureHumidityPressure
High80 °F (Jun 18, 7:00 PM)99% (Jun 28, 3:00 PM)30.18 "Hg (Jun 28, 3:00 PM)
Low54 °F (Jun 28, 7:00 AM)30% (Jun 24, 4:00 PM)29.63 "Hg (Jun 23, 5:00 AM)
Average64 °F75%29.92 "Hg
* Reported Jun 16 8:00 AM — Jul 1 8:00 AM, Oakville, Weather by CustomWeather, © 2015

Note: Actual official high and low records may vary slightly from our data, if they occured in-between our weather recording intervals... More about our weather records

Advertising

Oakville weather history for previous 24 hours

 ConditionsComfort  
Time TempWeatherWind HumidityBarometerVisibility
8:00 AM
Wed, Jul 1
64 °FMild.7 mph87%29.73 "HgN/A
7:00 AM64 °FMild.6 mph89%29.72 "HgN/A
6:00 AM63 °FMild.3 mph93%29.72 "HgN/A
5:00 AM62 °FMild.7 mph96%29.71 "HgN/A
4:00 AM62 °FCool.2 mph97%29.71 "HgN/A
3:00 AM59 °FCool.No wind97%29.72 "HgN/A
2:00 AM59 °FCool.2 mph97%29.74 "HgN/A
1:00 AM58 °FCool.1 mph97%29.75 "HgN/A
12:00 AM58 °FCool.No wind97%29.75 "HgN/A
11:00 PM
Tue, Jun 30
58 °FCool.2 mph97%29.77 "HgN/A
10:00 PM58 °FCool.5 mph96%29.76 "HgN/A
9:00 PM58 °FCool.7 mph96%29.75 "HgN/A
8:00 PM58 °FCool.8 mph94%29.76 "HgN/A
7:00 PM59 °FCool.8 mph93%29.76 "HgN/A
6:00 PM58 °FCool.14 mph93%29.75 "HgN/A
5:00 PM58 °FCool.16 mph94%29.77 "HgN/A
4:00 PM59 °FCool.13 mph94%29.77 "HgN/A
3:00 PM59 °FCool.12 mph92%29.78 "HgN/A
2:00 PM59 °FCool.9 mph92%29.80 "HgN/A
1:00 PM59 °FCool.12 mph93%29.80 "HgN/A
12:00 PM59 °FCool.13 mph91%29.81 "HgN/A
11:00 AM60 °FCool.15 mph90%29.81 "HgN/A
10:00 AM59 °FCool.15 mph91%29.82 "HgN/A
9:00 AM60 °FCool.16 mph90%29.82 "HgN/A
Weather by CustomWeather, © 2015

See weather overviewHow to use our weather pages